FW8870 Weather Reports


Display with metric or nautical units.
time (UTC)temp
F
wind
direction
speed
MPH
gust
MPH
rain 1hr
in
rain 24hr
in
rain mn
in
humidity
%
barometer
mb
20260502130428 50 267 0.0 0.0 0.00 0.00 0.00 99 1019.3
20260502123410 50 337 0.0 0.0 0.00 0.00 0.00 99 1018.9
20260502122908 50 347 0.0 0.0 0.00 0.00 0.00 99 1019.1
20260502122404 49 338 0.0 0.0 0.00 0.00 0.00 99 1019.2
20260502121902 49 338 0.0 0.0 0.00 0.00 0.00 99 1019.0
20260502121359 49 336 0.0 0.0 0.00 0.00 0.00 99 1018.8
20260502120857 49 336 0.0 0.0 0.00 0.00 0.00 99 1018.9
20260502120352 49 336 0.0 0.0 0.00 0.00 0.00 99 1019.0
20260502115850 49 336 0.0 0.0 0.00 0.00 0.00 99 1018.9
20260502115347 49 335 0.0 0.0 0.00 0.00 0.00 99 1018.9
20260502114843 49 336 0.0 0.0 0.00 0.00 0.00 99 1018.8
20260502114340 49 336 0.0 0.0 0.00 0.00 0.00 99 1018.6
20260502113837 50 336 0.0 0.0 0.00 0.00 0.00 99 1018.7
20260502113335 50 311 0.0 0.0 0.00 0.00 0.00 99 1018.6
20260502112833 50 317 0.0 0.0 0.00 0.00 0.00 99 1018.6
20260502112330 50 234 0.0 0.0 0.00 0.00 0.00 99 1018.4
20260502111827 51 234 0.0 0.0 0.00 0.00 0.00 99 1018.2
20260502111325 51 234 0.0 0.0 0.00 0.00 0.00 98 1018.4
20260502110823 52 228 0.0 0.0 0.00 0.00 0.00 96 1018.4
20260502110320 53 87 0.0 0.0 0.00 0.00 0.00 94 1018.4
20260502105817 51 168 0.0 0.0 0.00 0.00 0.00 99 1018.4
20260502105314 50 117 0.0 0.0 0.00 0.00 0.00 99 1018.3
20260502104812 50 322 0.0 0.0 0.00 0.00 0.00 99 1018.4
20260502104309 50 317 0.0 0.0 0.00 0.00 0.00 99 1018.6
20260502103806 51 343 0.0 0.0 0.00 0.00 0.00 99 1018.5
20260502103303 51 314 0.0 0.0 0.00 0.00 0.00 99 1018.4
20260502102801 51 307 0.0 0.0 0.00 0.00 0.00 98 1018.5
20260502102257 51 327 0.0 0.0 0.00 0.00 0.00 98 1018.3
20260502101755 52 327 0.0 0.0 0.00 0.00 0.00 97 1018.3
20260502101253 51 325 0.0 0.0 0.00 0.00 0.00 97 1018.2
20260502100751 52 325 0.0 0.0 0.00 0.00 0.00 97 1018.4
20260502100249 52 325 0.0 0.0 0.00 0.00 0.00 96 1018.1
20260502091223 53 342 0.0 0.0 0.00 0.00 0.00 96 1018.1
20260502090721 53 315 0.0 0.0 0.00 0.00 0.00 96 1018.2
20260502090217 52 316 0.0 0.0 0.00 0.00 0.00 99 1018.2
20260502071113 55 321 0.0 0.0 0.00 0.00 0.00 91 1017.9
20260502070611 55 321 0.0 0.0 0.00 0.00 0.00 91 1017.9
20260502070109 55 321 0.0 0.0 0.00 0.00 0.00 92 1017.9
20260502065607 56 321 0.0 0.0 0.00 0.00 0.00 92 1017.7
20260502065104 55 322 0.0 0.0 0.00 0.00 0.00 89 1017.6
20260502064603 55 321 0.0 0.0 0.00 0.00 0.00 92 1017.8
20260502064059 55 322 0.0 0.0 0.00 0.00 0.00 93 1017.6
20260502063557 55 330 0.0 0.0 0.00 0.00 0.00 92 1017.8
20260502063055 56 314 0.0 0.0 0.00 0.00 0.00 91 1017.5
20260502062552 56 333 0.0 0.0 0.00 0.00 0.00 89 1017.6
20260502062050 55 319 0.0 0.0 0.00 0.00 0.00 93 1017.3
20260502061547 55 319 0.0 0.0 0.00 0.00 0.00 92 1017.5
20260502061044 56 319 0.0 0.0 0.00 0.00 0.00 92 1017.2
20260502060539 55 320 0.0 0.0 0.00 0.00 0.00 92 1017.4
20260502060037 55 324 0.0 0.0 0.00 0.00 0.00 92 1017.3
20260502055534 56 324 0.0 0.0 0.00 0.00 0.00 91 1017.3
20260502055033 56 324 0.0 0.0 0.00 0.00 0.00 91 1017.4
20260502054531 56 324 0.0 0.0 0.00 0.00 0.00 91 1017.7
20260502054027 56 324 0.0 0.0 0.00 0.00 0.00 90 1017.4
20260502053524 56 297 0.0 0.0 0.00 0.00 0.00 90 1017.4
20260502053022 56 330 0.0 0.0 0.00 0.00 0.00 91 1017.4
20260502052520 56 283 0.0 0.0 0.00 0.00 0.00 91 1017.5
20260502052018 56 322 0.0 0.0 0.00 0.00 0.00 92 1017.6
20260502051516 56 281 0.0 0.0 0.00 0.00 0.00 91 1017.8
20260502051013 56 315 0.0 0.0 0.00 0.00 0.00 91 1017.8
20260502050509 56 314 0.0 0.0 0.00 0.00 0.00 91 1017.8
20260502050007 56 319 0.0 0.0 0.00 0.00 0.00 92 1017.6
20260502045503 55 319 0.0 0.0 0.00 0.00 0.00 92 1017.6
20260502045001 56 319 0.0 0.0 0.00 0.00 0.00 92 1017.3
20260502044456 56 319 0.0 0.0 0.00 0.00 0.00 91 1017.3
20260502043953 56 319 0.0 0.0 0.00 0.00 0.00 90 1017.1
20260502043451 57 319 0.0 0.0 0.00 0.00 0.00 91 1016.9
20260502042950 56 319 0.0 0.0 0.00 0.00 0.00 90 1016.9
20260502042447 57 319 0.0 0.0 0.00 0.00 0.00 89 1016.9
20260502041945 57 319 0.0 0.0 0.00 0.00 0.00 88 1017.1
20260502041443 58 319 0.0 0.0 0.00 0.00 0.00 87 1016.6
20260502040939 59 319 0.0 0.0 0.00 0.00 0.00 85 1016.6
20260502040436 59 319 0.0 0.0 0.00 0.00 0.00 82 1016.8
20260502035932 60 319 0.0 0.0 0.00 0.00 0.00 82 1016.6
20260502035428 60 325 0.0 0.0 0.00 0.00 0.00 81 1016.6
20260502034926 60 331 0.0 0.0 0.00 0.00 0.00 80 1016.4
20260502034425 60 331 0.0 0.0 0.00 0.00 0.00 79 1016.5
20260502033923 61 334 0.0 0.0 0.00 0.00 0.00 78 1016.3
20260502033420 61 334 0.0 0.0 0.00 0.00 0.00 77 1016.4
20260502032917 62 336 0.0 0.0 0.00 0.00 0.00 77 1016.2
20260502032413 62 333 0.0 0.0 0.00 0.00 0.00 77 1016.2
20260502031910 62 327 0.0 0.0 0.00 0.00 0.00 77 1016.3
20260502031409 63 336 0.0 0.0 0.00 0.00 0.00 76 1016.3
20260502030907 63 347 0.0 0.0 0.00 0.00 0.00 76 1016.5
20260502030404 64 330 0.0 0.0 0.00 0.00 0.00 75 1016.3
20260502025902 64 330 0.0 0.0 0.00 0.00 0.00 74 1016.3
20260502025359 64 340 0.0 0.0 0.00 0.00 0.00 73 1016.4
20260502024857 65 326 0.0 0.0 0.00 0.00 0.00 74 1016.1
20260502024354 65 327 0.0 0.0 0.00 0.00 0.00 74 1016.1
20260502023852 65 326 0.0 0.0 0.00 0.00 0.00 71 1016.1
20260502023350 66 326 0.0 0.0 0.00 0.00 0.00 71 1015.9
20260502022847 67 328 0.0 0.0 0.00 0.00 0.00 70 1016.0
20260502022343 67 335 0.0 0.0 0.00 0.00 0.00 70 1015.8
20260502021840 68 316 0.0 0.0 0.00 0.00 0.00 68 1015.8
20260502021338 68 336 0.0 0.0 0.00 0.00 0.00 70 1015.7
20260502020835 68 321 0.0 0.0 0.00 0.00 0.00 69 1015.7
20260502020332 68 321 0.0 0.0 0.00 0.00 0.00 70 1015.7
20260502015829 69 322 0.0 0.0 0.00 0.00 0.00 69 1015.8
20260502015327 69 312 0.0 0.0 0.00 0.00 0.00 66 1015.7
20260502014824 69 326 0.0 0.0 0.00 0.00 0.00 68 1015.8
20260502014321 69 309 0.0 0.0 0.00 0.00 0.00 68 1015.9
20260502013816 70 318 0.0 0.0 0.00 0.00 0.00 67 1015.8
20260502013313 70 2 0.0 0.0 0.00 0.00 0.00 65 1016.0
20260502012809 71 321 0.0 0.0 0.00 0.00 0.00 67 1015.8
20260502012307 71 328 0.0 0.0 0.00 0.00 0.00 65 1015.8
20260502011804 72 340 0.0 0.0 0.00 0.00 0.00 63 1016.1
20260502011300 73 322 0.0 0.0 0.00 0.00 0.00 61 1015.8
20260502010757 72 312 0.0 0.0 0.00 0.00 0.00 61 1015.8
20260502010253 72 309 0.0 0.0 0.00 0.00 0.00 63 1015.9
20260502005751 73 30 0.0 0.0 0.00 0.00 0.00 61 1015.8
20260502005248 73 329 0.0 0.0 0.00 0.00 0.00 62 1015.8
20260502004745 73 16 0.0 0.0 0.00 0.00 0.00 62 1016.0
20260502004242 73 88 3.0 5.0 0.00 0.00 0.00 60 1015.9
20260502003739 74 22 0.0 0.0 0.00 0.00 0.00 64 1016.0
20260502003237 74 24 0.0 2.0 0.00 0.00 0.00 60 1015.8
20260502002732 75 343 0.0 0.0 0.00 0.00 0.00 57 1015.9
20260502002230 75 316 0.0 0.0 0.00 0.00 0.00 63 1015.9
20260502001727 76 276 0.0 0.0 0.00 0.00 0.00 56 1015.8
20260502001225 77 308 0.0 0.0 0.00 0.00 0.00 57 1015.8
20260502000722 77 304 1.0 3.0 0.00 0.00 0.00 55 1015.8
20260502000220 76 310 0.0 0.0 0.00 0.00 0.00 58 1016.0
20260501235715 77 3 1.0 3.0 0.00 0.00 0.00 54 1015.8
20260501235212 76 288 0.0 1.0 0.00 0.00 0.00 54 1015.7
20260501234708 76 309 0.0 0.0 0.00 0.00 0.00 59 1016.0
20260501234205 76 340 3.0 7.0 0.00 0.00 0.00 54 1015.9
20260501233703 75 297 1.0 3.0 0.00 0.00 0.00 56 1016.0
20260501233200 76 326 0.0 0.0 0.00 0.00 0.00 58 1016.4
20260501232655 76 17 0.0 0.0 0.00 0.00 0.00 62 1016.2
20260501232153 75 358 0.0 0.0 0.00 0.00 0.00 58 1016.0
20260501231651 75 313 0.0 0.0 0.00 0.00 0.00 61 1016.1
20260501231149 75 277 0.0 0.0 0.00 0.00 0.00 60 1016.2
20260501230647 75 18 0.0 0.0 0.00 0.00 0.00 58 1016.3
20260501230145 76 9 0.0 0.0 0.00 0.00 0.00 61 1016.3
20260501225642 76 344 0.0 0.0 0.00 0.00 0.00 55 1016.4
20260501225138 77 301 0.0 0.0 0.00 0.00 0.00 54 1016.2
20260501224635 77 307 0.0 0.0 0.00 0.00 0.00 54 1016.4
20260501224133 76 337 0.0 0.0 0.00 0.00 0.00 55 1016.1
20260501223629 77 282 0.0 1.0 0.00 0.00 0.00 52 1016.3
20260501223126 77 176 0.0 0.0 0.00 0.00 0.00 56 1016.4
20260501222621 76 322 0.0 0.0 0.00 0.00 0.00 55 1016.6
20260501222119 76 326 0.0 0.0 0.00 0.00 0.00 54 1016.6
20260501221615 76 322 0.0 0.0 0.00 0.00 0.00 56 1016.7
20260501221113 75 251 0.0 0.0 0.00 0.00 0.00 50 1016.6
20260501220611 76 282 0.0 0.0 0.00 0.00 0.00 52 1016.8
20260501220107 76 85 0.0 0.0 0.00 0.00 0.00 56 1016.9
20260501215604 77 318 0.0 0.0 0.00 0.00 0.00 55 1017.1
20260501215059 75 212 0.0 0.0 0.00 0.00 0.00 52 1016.8
20260501214554 75 301 0.0 0.0 0.00 0.00 0.00 55 1017.1
20260501214050 75 165 0.0 0.0 0.00 0.00 0.00 57 1017.1
20260501213547 75 300 0.0 0.0 0.00 0.00 0.00 58 1016.8
20260501213043 75 301 0.0 1.0 0.00 0.00 0.00 55 1017.0
20260501212540 75 13 1.0 2.0 0.00 0.00 0.00 53 1017.1
20260501212037 75 304 1.0 2.0 0.00 0.00 0.00 53 1017.3
20260501211533 74 319 0.0 0.0 0.00 0.00 0.00 56 1017.1
20260501211032 75 318 0.0 0.0 0.00 0.00 0.00 58 1017.3
20260501210527 75 328 0.0 1.0 0.00 0.00 0.00 52 1017.1
20260501210025 74 7 3.0 5.0 0.00 0.00 0.00 55 1017.2
20260501205521 74 301 0.0 1.0 0.00 0.00 0.00 59 1017.3
20260501205019 74 29 0.0 1.0 0.00 0.00 0.00 57 1017.2
20260501204515 74 329 0.0 0.0 0.00 0.00 0.00 58 1017.1
20260501204011 75 215 0.0 0.0 0.00 0.00 0.00 60 1017.5
20260501203508 74 328 0.0 0.0 0.00 0.00 0.00 57 1017.2
20260501203006 74 97 1.0 2.0 0.00 0.00 0.00 57 1017.2
20260501202502 74 5 2.0 5.0 0.00 0.00 0.00 55 1017.6
20260501201958 73 296 0.0 0.0 0.00 0.00 0.00 57 1017.5
20260501201456 74 82 0.0 0.0 0.00 0.00 0.00 63 1017.5
20260501200952 73 322 0.0 0.0 0.00 0.00 0.00 61 1017.3
20260501200450 73 343 0.0 0.0 0.00 0.00 0.00 62 1017.7
20260501195947 71 330 0.0 0.0 0.00 0.00 0.00 59 1017.6
20260501195444 71 320 0.0 1.0 0.00 0.00 0.00 60 1017.8
20260501194939 71 68 0.0 2.0 0.00 0.00 0.00 57 1017.7
20260501194435 73 328 0.0 0.0 0.00 0.00 0.00 64 1017.8
20260501193931 71 294 0.0 0.0 0.00 0.00 0.00 61 1017.7
20260501193430 71 334 0.0 0.0 0.00 0.00 0.00 62 1017.9
20260501192927 70 157 0.0 1.0 0.00 0.00 0.00 64 1017.9
20260501192424 70 60 0.0 0.0 0.00 0.00 0.00 63 1017.9
20260501191922 71 316 0.0 0.0 0.00 0.00 0.00 61 1018.0
20260501191419 71 315 0.0 0.0 0.00 0.00 0.00 67 1018.1
20260501190915 71 32 0.0 0.0 0.00 0.00 0.00 65 1018.3
20260501190412 71 183 1.0 2.0 0.00 0.00 0.00 62 1018.2
20260501185911 70 252 0.0 0.0 0.00 0.00 0.00 67 1018.3
20260501185408 70 120 0.0 1.0 0.00 0.00 0.00 64 1018.4
20260501184904 69 322 0.0 0.0 0.00 0.00 0.00 66 1018.4
20260501184400 69 353 0.0 0.0 0.00 0.00 0.00 68 1018.6
20260501183855 69 313 0.0 0.0 0.00 0.00 0.00 65 1018.7
20260501183353 68 341 0.0 0.0 0.00 0.00 0.00 67 1018.9
20260501182849 68 347 0.0 0.0 0.00 0.00 0.00 68 1018.7
20260501182346 67 288 0.0 0.0 0.00 0.00 0.00 67 1018.7
20260501181843 67 328 0.0 0.0 0.00 0.00 0.00 71 1018.6
20260501181340 68 314 0.0 0.0 0.00 0.00 0.00 67 1018.6
20260501180838 67 254 0.0 0.0 0.00 0.00 0.00 68 1018.8
20260501180333 67 46 0.0 0.0 0.00 0.00 0.00 66 1018.8
20260501175831 67 149 0.0 0.0 0.00 0.00 0.00 69 1018.7
20260501175327 66 246 0.0 0.0 0.00 0.00 0.00 68 1018.7
20260501174824 66 323 0.0 0.0 0.00 0.00 0.00 69 1018.8
20260501174321 66 281 0.0 0.0 0.00 0.00 0.00 70 1018.8
20260501173820 66 324 0.0 0.0 0.00 0.00 0.00 69 1018.9
20260501173317 65 337 0.0 0.0 0.00 0.00 0.00 74 1019.1
20260501172812 65 328 0.0 0.0 0.00 0.00 0.00 73 1019.1
20260501172307 65 346 0.0 0.0 0.00 0.00 0.00 72 1019.2
20260501171803 64 345 0.0 0.0 0.00 0.00 0.00 73 1019.2
20260501171300 64 308 0.0 0.0 0.00 0.00 0.00 73 1019.1
20260501170757 64 333 0.0 0.0 0.00 0.00 0.00 80 1019.2
20260501170254 63 345 0.0 0.0 0.00 0.00 0.00 74 1019.1
20260501165751 63 348 0.0 0.0 0.00 0.00 0.00 74 1019.1
20260501165249 62 329 1.0 2.0 0.00 0.00 0.00 75 1019.2
20260501164747 61 334 0.0 0.0 0.00 0.00 0.00 76 1019.3
20260501164243 62 0 0.0 0.0 0.00 0.00 0.00 74 1019.3
20260501163739 62 341 0.0 0.0 0.00 0.00 0.00 79 1019.2
20260501163237 61 349 0.0 0.0 0.00 0.00 0.00 76 1019.6
20260501162732 60 343 0.0 0.0 0.00 0.00 0.00 78 1019.4
20260501162229 60 358 0.0 0.0 0.00 0.00 0.00 80 1019.4
20260501161727 59 340 0.0 0.0 0.00 0.00 0.00 78 1019.4
20260501161224 60 343 0.0 0.0 0.00 0.00 0.00 81 1019.4
20260501160720 59 11 0.0 0.0 0.00 0.00 0.00 83 1019.5
20260501160217 59 357 0.0 0.0 0.00 0.00 0.00 82 1019.7
20260501155714 59 317 0.0 0.0 0.00 0.00 0.00 82 1019.8
20260501155211 58 5 0.0 0.0 0.00 0.00 0.00 83 1019.4
20260501154708 57 352 0.0 0.0 0.00 0.00 0.00 84 1019.5
20260501154205 57 344 0.0 0.0 0.00 0.00 0.00 83 1019.3
20260501153703 58 356 0.0 0.0 0.00 0.00 0.00 85 1019.7
20260501153200 57 150 0.0 0.0 0.00 0.00 0.00 86 1019.6
20260501152656 56 352 0.0 0.0 0.00 0.00 0.00 88 1019.7
20260501152153 55 352 0.0 0.0 0.00 0.00 0.00 89 1019.8
20260501151650 56 353 0.0 0.0 0.00 0.00 0.00 87 1019.5
20260501151147 56 354 0.0 0.0 0.00 0.00 0.00 88 1019.5
20260501150643 54 345 0.0 0.0 0.00 0.00 0.00 90 1020.0
20260501150139 53 336 0.0 0.0 0.00 0.00 0.00 91 1019.6
20260501145635 52 336 0.0 0.0 0.00 0.00 0.00 92 1019.4
20260501145133 52 326 0.0 0.0 0.00 0.00 0.00 91 1019.3
20260501144629 52 334 0.0 0.0 0.00 0.00 0.00 90 1019.3
20260501144130 51 328 0.0 0.0 0.00 0.00 0.00 91 1019.1
20260501143626 51 325 0.0 0.0 0.00 0.00 0.00 92 1019.0
20260501143124 51 330 0.0 0.0 0.00 0.00 0.00 92 1019.1
20260501142621 51 8 0.0 0.0 0.00 0.00 0.00 92 1019.1
20260501142117 50 295 0.0 0.0 0.00 0.00 0.00 93 1019.0
20260501141613 50 338 0.0 0.0 0.00 0.00 0.00 95 1019.1